This is the latest recevied weather packets stored in our database for station/object N6GPM. If no packets are shown the sender has not sent any weather packets the latest 10 day(s).
| Time | Temp. | Humidity | Pressure | Rain* | Wind** | Luminosity | Snow |
|---|---|---|---|---|---|---|---|
| 1787792935 | 36.11° C | 25% | 1015.6 hPa | 0 mm | - | 110 W/m² | - |
| 1787792630 | 36.11° C | 25% | 1015.6 hPa | 0 mm | - | 139 W/m² | - |
| 1787792327 | 36.11° C | 25% | 1015.6 hPa | 0 mm | - | 179 W/m² | - |
| 1787792026 | 36.67° C | 24% | 1015.7 hPa | 0 mm | - | 254 W/m² | - |
| 1787791724 | 36.67° C | 25% | 1015.6 hPa | 0 mm | - | 270 W/m² | - |
| 1787791420 | 37.22° C | 25% | 1015.6 hPa | 0 mm | - | 296 W/m² | - |
| 1787791115 | 36.67° C | 25% | 1015.4 hPa | 0 mm | - | 315 W/m² | - |
| 1787790810 | 36.67° C | 25% | 1015.5 hPa | 0 mm | - | 322 W/m² | - |
| 1787790505 | 36.67° C | 24% | 1015.7 hPa | 0 mm | - | 328 W/m² | - |
| 1787790200 | 37.22° C | 23% | 1015.6 hPa | 0 mm | - | 334 W/m² | - |
| 1787789897 | 37.22° C | 24% | 1015.4 hPa | 0 mm | - | 338 W/m² | - |
| 1787789596 | 37.22° C | 23% | 1015.7 hPa | 0 mm | - | 352 W/m² | - |
| 1787789295 | 37.78° C | 21% | 1015.4 hPa | 0 mm | - | 366 W/m² | - |
| 1787788990 | 37.78° C | 22% | 1015.6 hPa | 0 mm | - | 383 W/m² | - |
| 1787788688 | 37.78° C | 23% | 1015.6 hPa | 0 mm | - | 407 W/m² | - |
| 1787788383 | 37.78° C | 23% | 1015.6 hPa | 0 mm | - | 426 W/m² | - |
| 1787788077 | 37.78° C | 23% | 1015.6 hPa | 0 mm | - | 460 W/m² | - |
| 1787787773 | 37.78° C | 22% | 1015.7 hPa | 0 mm | - | 491 W/m² | - |
| 1787787471 | 38.33° C | 22% | 1015.8 hPa | 0 mm | - | 528 W/m² | - |
| 1787787165 | 38.33° C | 21% | 1015.6 hPa | 0 mm | - | 557 W/m² | - |
| 1787786860 | 38.89° C | 21% | 1015.6 hPa | 0 mm | - | 598 W/m² | - |
| 1787786556 | 38.89° C | 19% | 1015.6 hPa | 0 mm | - | 621 W/m² | - |
| 1787786251 | 38.89° C | 20% | 1015.6 hPa | 0 mm | - | 650 W/m² | - |
| 1787785946 | 38.89° C | 20% | 1015.7 hPa | 0 mm | - | 657 W/m² | - |
| 1787785642 | 38.89° C | 22% | 1015.7 hPa | 0 mm | - | 696 W/m² | - |
* Rain latest hour (hover to see other rain measurements)
** Current wind speed in m/s (hover to see current wind gust speed)